Jonesville, VA

10:23 PM EDT on May 23, 2017 (GMT -0400)
Jonesville

Weather History for K0VG - April, 2013

Change the Weather History Date:

Wednesday, April 24, 2013

  Actual Average (KLNP) Record (KLNP)
Temperature  
Mean Temperature 56 °F -  
Max Temperature 69 °F 62 °F 80 °F (2008)
Min Temperature 44 °F 44 °F 28 °F (2005)
Degree Days  
Heating Degree Days 8    
Growing Degree Days 6 (Base 50)    
Moisture  
Dew Point 49 °F    
Average Humidity 84    
Maximum Humidity 100    
Minimum Humidity 53    
Precipitation  
Precipitation 0.18 in - - ()
Sea Level Pressure  
Sea Level Pressure 30.07 in    
Wind  
Wind Speed 3 mph (WSW)    
Max Wind Speed 20 mph    
Max Gust Speed 24 mph    
Visibility 9 miles    
Events Rain    
Averages and records for this station are not official NWS values.
T = Trace of Precipitation, MM = Missing Value Source: NWS Daily Summary

Daily Weather History Graph

Daily Weather History Graph

Search for Another Location

Airport or City:

Trip Planner

Search our weather history database for the weather conditions in past years. The results will help you decide how hot, cold, wet, or windy it might be!

Date:

Astronomy

Apr. 24, 2013 Rise Set
Actual Time 6:47 AM EDT 8:15 PM EDT
Civil Twilight 6:19 AM EDT 8:42 PM EDT
Nautical Twilight 5:47 AM EDT 9:15 PM EDT
Astronomical Twilight 5:12 AM EDT 9:49 PM EDT
Moon 7:18 PM EDT 5:48 AM EDT
Length of Visible Light 14h 22m
Length of Day
13h 28m
Waxing Gibbous, 98% of the Moon is Illuminated
Apr 24
Waxing Gibbous
Apr 25
Full
May 2
Last Quarter
May 9
New
May 18
First Quarter

Hourly Weather History & Observations

Time (EDT) Temp. Windchill Dew Point Humidity Pressure Visibility Wind Dir Wind Speed Gust Speed Precip Events Conditions
12:15 AM 48.2 °F - 46.4 °F 93% 30.08 in 10.0 mi Calm Calm - N/A   Overcast
12:35 AM 48.2 °F - 46.4 °F 93% 30.07 in 10.0 mi Calm Calm - N/A   Mostly Cloudy
12:55 AM 50.0 °F - 46.4 °F 87% 30.07 in 10.0 mi Calm Calm - N/A   Overcast
1:15 AM 48.2 °F - 46.4 °F 93% 30.08 in 10.0 mi Calm Calm - N/A   Overcast
1:35 AM 48.2 °F - 46.4 °F 93% 30.08 in 10.0 mi Calm Calm - N/A   Scattered Clouds
1:55 AM 48.2 °F - 46.4 °F 93% 30.08 in 10.0 mi Calm Calm - N/A   Clear
2:15 AM 48.2 °F - 46.4 °F 93% 30.08 in 10.0 mi Calm Calm - N/A   Mostly Cloudy
2:35 AM 48.2 °F - 44.6 °F 87% 30.08 in 10.0 mi Calm Calm - N/A   Overcast
2:55 AM 48.2 °F - 46.4 °F 93% 30.08 in 10.0 mi Calm Calm - N/A   Overcast
3:15 AM 50.0 °F - 46.4 °F 87% 30.07 in 10.0 mi Calm Calm - N/A   Overcast
3:35 AM 48.2 °F - 46.4 °F 93% 30.07 in 10.0 mi Calm Calm - N/A   Overcast
3:55 AM 48.2 °F - 46.4 °F 93% 30.07 in 10.0 mi Calm Calm - N/A   Overcast
4:15 AM 48.2 °F - 46.4 °F 93% 30.07 in 10.0 mi Calm Calm - N/A   Scattered Clouds
4:35 AM 48.2 °F - 46.4 °F 93% 30.07 in 10.0 mi Calm Calm - N/A   Clear
4:55 AM 48.2 °F - 44.6 °F 87% 30.06 in 10.0 mi Calm Calm - N/A   Clear
5:15 AM 46.4 °F - 44.6 °F 93% 30.06 in 10.0 mi Calm Calm - N/A   Clear
5:35 AM 44.6 °F - 44.6 °F 100% 30.06 in 10.0 mi Calm Calm - N/A   Partly Cloudy
5:55 AM 44.6 °F - 44.6 °F 100% 30.05 in 10.0 mi Calm Calm - N/A   Partly Cloudy
6:15 AM 44.6 °F - 44.6 °F 100% 30.05 in 9.0 mi Calm Calm - N/A   Clear
6:35 AM 46.4 °F - 44.6 °F 93% 30.05 in 10.0 mi Calm Calm - N/A   Clear
6:55 AM 44.6 °F - 44.6 °F 100% 30.05 in 10.0 mi Calm Calm - N/A   Clear
7:15 AM 44.6 °F - 44.6 °F 100% 30.04 in 8.0 mi Calm Calm - N/A   Clear
7:35 AM 46.4 °F - 46.4 °F 100% 30.04 in 10.0 mi Calm Calm - N/A   Clear
7:55 AM 48.2 °F - 46.4 °F 93% 30.03 in 10.0 mi Calm Calm - N/A   Clear
8:15 AM 50.0 °F - 46.4 °F 87% 30.04 in 10.0 mi Calm Calm - N/A   Clear
8:35 AM 50.0 °F - 46.4 °F 87% 30.04 in 10.0 mi Calm Calm - N/A   Clear
8:55 AM 51.8 °F - 48.2 °F 88% 30.03 in 10.0 mi Calm Calm - N/A   Clear
9:15 AM 53.6 °F - 48.2 °F 82% 30.02 in 10.0 mi Calm Calm - N/A   Clear
9:35 AM 55.4 °F - 50.0 °F 82% 30.02 in 10.0 mi Calm Calm - N/A   Clear
9:55 AM 57.2 °F - 48.2 °F 72% 30.02 in 10.0 mi Calm Calm - N/A   Clear
10:15 AM 59.0 °F - 50.0 °F 72% 30.01 in 10.0 mi Calm Calm - N/A   Clear
10:35 AM 62.6 °F - 50.0 °F 63% 30.02 in 10.0 mi Calm Calm - N/A   Clear
10:55 AM 64.4 °F - 48.2 °F 56% 30.03 in 10.0 mi Calm Calm - N/A   Scattered Clouds
11:15 AM 64.4 °F - 50.0 °F 59% 30.04 in 10.0 mi WSW 6.9 mph - N/A   Scattered Clouds
11:35 AM 66.2 °F - 50.0 °F 56% 30.04 in 10.0 mi SSW 11.5 mph - N/A   Scattered Clouds
11:55 AM 68.0 °F - 51.8 °F 56% 30.02 in 10.0 mi SSW 17.3 mph 21.9 mph N/A   Mostly Cloudy
12:15 PM 68.0 °F - 51.8 °F 56% 30.02 in 10.0 mi SW 19.6 mph 24.2 mph N/A   Overcast
12:35 PM 69.8 °F - 51.8 °F 53% 30.01 in 10.0 mi SW 12.7 mph 20.7 mph N/A   Mostly Cloudy
12:55 PM 69.8 °F - 51.8 °F 53% 30.01 in 10.0 mi SSW 10.4 mph - N/A   Mostly Cloudy
1:15 PM 68.0 °F - 53.6 °F 60% 30.02 in 10.0 mi SW 12.7 mph - N/A   Overcast
1:35 PM 68.0 °F - 51.8 °F 56% 30.01 in 10.0 mi SW 13.8 mph - N/A   Overcast
1:55 PM 68.0 °F - 53.6 °F 60% 30.02 in 9.0 mi WSW 12.7 mph 18.4 mph N/A   Overcast
2:15 PM 62.6 °F - 57.2 °F 82% 30.04 in 3.0 mi WSW 12.7 mph 23.0 mph 0.01 in Rain Light Rain
2:35 PM 60.8 °F - 57.2 °F 88% 30.06 in 2.0 mi WSW 15.0 mph 19.6 mph 0.09 in Rain Rain
2:55 PM 59.0 °F - 59.0 °F 100% 30.04 in 2.0 mi SSW 10.4 mph 23.0 mph 0.16 in Rain Light Rain
3:15 PM 59.0 °F - 59.0 °F 100% 30.02 in 7.0 mi West 6.9 mph - N/A Rain Light Rain
3:35 PM 60.8 °F - 59.0 °F 94% 30.04 in 10.0 mi WSW 9.2 mph - N/A   Scattered Clouds
3:55 PM 62.6 °F - 59.0 °F 88% 30.03 in 10.0 mi WSW 8.1 mph - N/A   Overcast
4:15 PM 62.6 °F - 59.0 °F 88% 30.02 in 10.0 mi SW 9.2 mph - N/A   Overcast
4:35 PM 62.6 °F - 59.0 °F 88% 30.02 in 10.0 mi WSW 11.5 mph - N/A   Overcast
4:55 PM 62.6 °F - 59.0 °F 88% 30.01 in 10.0 mi SW 12.7 mph - N/A   Mostly Cloudy
5:15 PM 62.6 °F - 59.0 °F 88% 30.02 in 10.0 mi WSW 8.1 mph - N/A   Overcast
5:35 PM 62.6 °F - 59.0 °F 88% 30.02 in 10.0 mi WSW 8.1 mph - N/A   Overcast
5:55 PM 55.4 °F - 53.6 °F 94% 30.05 in 4.0 mi WNW 15.0 mph 21.9 mph 0.02 in Rain Light Rain
6:15 PM 55.4 °F - 50.0 °F 82% 30.08 in 10.0 mi Calm Calm - N/A   Overcast
6:35 PM 53.6 °F - 50.0 °F 88% 30.10 in 10.0 mi WNW 8.1 mph - N/A   Overcast
6:55 PM 51.8 °F - 48.2 °F 88% 30.12 in 7.0 mi West 6.9 mph - N/A Rain Light Rain
7:15 PM 50.0 °F - 46.4 °F 87% 30.12 in 8.0 mi WNW 6.9 mph - N/A Rain Light Rain
7:35 PM 50.0 °F - 46.4 °F 87% 30.13 in 10.0 mi NW 6.9 mph - N/A   Overcast
7:55 PM 48.2 °F - 44.6 °F 87% 30.14 in 10.0 mi WNW 9.2 mph 19.6 mph N/A   Mostly Cloudy
8:15 PM 48.2 °F - 44.6 °F 87% 30.16 in 10.0 mi NNW 5.8 mph - N/A   Mostly Cloudy
8:35 PM 48.2 °F - 44.6 °F 87% 30.17 in 10.0 mi NW 6.9 mph - N/A   Overcast
8:55 PM 46.4 °F 41.1 °F 41.0 °F 81% 30.18 in 10.0 mi WNW 11.5 mph - N/A   Overcast
9:15 PM 46.4 °F - 41.0 °F 81% 30.19 in 10.0 mi Calm Calm - N/A   Overcast
9:35 PM 46.4 °F 43.5 °F 41.0 °F 81% 30.20 in 10.0 mi NW 5.8 mph - N/A   Overcast
9:55 PM 46.4 °F 44.3 °F 41.0 °F 81% 30.22 in 10.0 mi NW 4.6 mph - N/A   Overcast
11:15 PM 44.6 °F - 37.4 °F 76% 30.26 in 10.0 mi Calm Calm - N/A   Overcast
11:35 PM 44.6 °F - 37.4 °F 76% 30.26 in 10.0 mi Calm Calm - N/A   Mostly Cloudy
11:55 PM 44.6 °F - 35.6 °F 71% 30.26 in 10.0 mi Calm Calm - N/A   Mostly Cloudy